User: anonymous   Login
Location: Kott?ru
(16.6209°N, 80.6208°E)
Time: 22:05:06
(UTC+00:00)
Language:

SL-16 R/B - Orbit

View from above orbital plane
View from above orbital plane
View from above satellite
View from above satellite

Ground track
Ground track

The orbit data is extracted from the following two-line orbital elements,

1 31793U 07029B   20327.90124391 +.00000309 +00000-0 +18638-3 0  9995
2 31793 070.9761 273.5153 0001956 277.7798 141.0153 14.14439241692060
Epoch (UTC): 22 November 2020 21:37:47
Eccentricity: 0.0001956
inclination: 70.9761°
perigee height: 843 km
apogee height: 845 km
right ascension of ascending node: 273.5153°
argument of perigee: 277.7798°
revolutions per day: 14.14439241
mean anomaly at epoch: 141.0153°
orbit number at epoch: 69206

The dashed part of the orbit path shows where the satellite is in the earth's shadow,  

DLR